FW8671 Weather Reports


time (UTC)temp
C
wind
direction
speed
KPH
gust
KPH
rain 1hr
cm
rain 24hr
cm
rain mn
cm
humidity
%
barometer
mb
20260905234821 23 324 0.0 0.0 0.00 0.03 0.03 72 1012.4
20260905233822 23 324 0.0 0.0 0.00 0.03 0.03 71 1012.5
20260905232748 23 324 1.6 3.2 0.00 0.03 0.03 69 1012.4
20260905231755 23 324 0.0 3.2 0.00 0.03 0.03 69 1012.2
20260905230804 23 324 0.0 0.0 0.00 0.03 0.03 69 1012.1
20260905225734 23 324 0.0 0.0 0.00 0.03 0.03 68 1012.1
20260905224708 24 324 0.0 0.0 0.00 0.03 0.03 67 1012.2
20260905223641 25 324 0.0 4.8 0.00 0.03 0.03 66 1012.1
20260905221509 25 324 1.6 6.4 0.00 0.03 0.03 66 1012.0
20260905220505 25 324 1.6 6.4 0.00 0.03 0.03 66 1012.0
20260905215436 25 324 1.6 8.0 0.00 0.03 0.03 65 1012.0
20260905213250 25 324 3.2 12.9 0.00 0.03 0.03 64 1011.8
20260905212230 25 324 3.2 16.1 0.00 0.03 0.03 63 1011.8
20260905211206 25 324 3.2 16.1 0.00 0.03 0.03 62 1011.6
20260905210146 26 324 3.2 11.3 0.00 0.03 0.03 62 1011.4
20260905205155 26 324 3.2 8.0 0.00 0.03 0.03 61 1011.4
20260905204211 26 317 3.2 11.3 0.00 0.03 0.03 59 1011.3
20260905203138 26 342 4.8 14.5 0.00 0.03 0.03 60 1011.3
20260905202113 26 16 6.4 16.1 0.00 0.03 0.03 58 1011.3
20260905201051 26 342 6.4 22.5 0.00 0.03 0.03 58 1011.2
20260905200115 27 30 3.2 22.5 0.00 0.03 0.03 58 1011.2
20260905195139 26 52 3.2 14.5 0.00 0.03 0.03 60 1011.3
20260905194144 26 49 4.8 14.5 0.00 0.03 0.03 62 1011.3
20260905192020 25 34 3.2 11.3 0.00 0.03 0.03 63 1011.5
20260905185927 26 342 3.2 11.3 0.00 0.03 0.03 61 1011.7
20260905184855 26 26 3.2 12.9 0.00 0.03 0.03 62 1011.7
20260905183827 26 11 3.2 16.1 0.00 0.03 0.03 64 1011.7
20260905182757 25 82 4.8 16.1 0.00 0.03 0.03 65 1011.8
20260905181747 25 342 4.8 14.5 0.00 0.03 0.03 65 1011.8
20260905180751 25 41 6.4 14.5 0.00 0.03 0.03 64 1011.9
20260905174629 25 342 1.6 6.4 0.00 0.03 0.03 69 1012.2
20260905173616 24 51 3.2 12.9 0.00 0.03 0.03 69 1012.1
20260905172601 24 35 4.8 12.9 0.00 0.03 0.03 70 1012.2
20260905171604 24 39 3.2 22.5 0.00 0.03 0.03 68 1012.2
20260905170548 25 47 4.8 22.5 0.00 0.03 0.03 66 1012.2
20260905164450 25 49 3.2 14.5 0.00 0.03 0.03 67 1012.3
20260905163449 24 28 3.2 16.1 0.00 0.03 0.03 69 1012.4
20260905162441 23 28 6.4 16.1 0.00 0.03 0.03 70 1012.3
20260905161501 23 17 4.8 14.5 0.00 0.03 0.03 70 1012.3
20260905160505 23 43 6.4 17.7 0.00 0.03 0.03 71 1012.2
20260905154333 23 23 6.4 17.7 0.00 0.03 0.03 71 1012.2
20260905153329 23 0 6.4 17.7 0.00 0.03 0.03 69 1012.3
20260905152311 24 0 6.4 17.7 0.00 0.03 0.03 69 1012.2
20260905151302 23 75 8.0 19.3 0.00 0.03 0.03 70 1012.3
20260905150309 23 77 8.0 24.1 0.00 0.03 0.03 69 1012.2
20260905145255 23 75 9.7 24.1 0.00 0.03 0.03 69 1012.2
20260905143109 24 324 8.0 24.1 0.00 0.03 0.03 69 1012.2
20260905140929 23 324 6.4 22.5 0.00 0.03 0.03 72 1011.9
20260905134817 23 324 6.4 17.7 0.00 0.03 0.03 72 1012.1
20260905133842 23 324 6.4 17.7 0.00 0.03 0.03 72 1012.0
20260905132830 23 324 8.0 20.9 0.00 0.03 0.03 73 1012.1
20260905131758 23 324 8.0 22.5 0.00 0.03 0.03 73 1012.2
20260905130754 23 324 4.8 22.5 0.00 0.03 0.03 73 1012.3
20260905125735 23 324 6.4 19.3 0.00 0.03 0.03 75 1012.3
20260905124800 22 324 4.8 16.1 0.00 0.03 0.03 75 1012.4
20260905123744 22 324 4.8 12.9 0.00 0.03 0.03 75 1012.4
20260905122733 22 324 4.8 17.7 0.00 0.03 0.03 76 1012.4
20260905121659 22 324 6.4 19.3 0.00 0.03 0.03 77 1012.5
20260905120704 22 324 4.8 19.3 0.00 0.03 0.03 77 1012.5
20260905115657 21 323 3.2 17.7 0.00 0.03 0.03 78 1012.4
20260905114722 21 323 6.4 17.7 0.00 0.03 0.03 79 1012.2
20260905113715 21 324 4.8 14.5 0.00 0.03 0.03 80 1012.1
20260905112711 20 324 3.2 12.9 0.00 0.03 0.03 81 1012.0
20260905111711 20 324 1.6 11.3 0.00 0.03 0.03 82 1012.0
20260905105558 20 324 1.6 8.0 0.00 0.03 0.03 82 1011.7
20260905104536 20 324 1.6 6.4 0.00 0.03 0.03 81 1011.6
20260905103527 20 324 0.0 1.6 0.00 0.05 0.03 81 1011.5
20260905102531 20 324 0.0 3.2 0.00 0.05 0.03 81 1011.5
20260905101529 20 324 0.0 1.6 0.00 0.05 0.03 80 1011.4
20260905100548 21 324 0.0 0.0 0.00 0.05 0.03 80 1011.5
20260905095605 21 324 0.0 1.6 0.00 0.05 0.03 80 1011.5
20260905094535 21 324 0.0 1.6 0.00 0.05 0.03 79 1011.4
20260905093541 21 324 0.0 3.2 0.00 0.05 0.03 78 1011.3
20260905092552 21 324 1.6 11.3 0.00 0.05 0.03 78 1011.4
20260905090510 21 324 3.2 14.5 0.00 0.03 0.03 77 1011.3
20260905085529 21 324 4.8 12.9 0.00 0.03 0.00 76 1011.3
20260905084517 22 324 4.8 12.9 0.00 0.03 0.00 76 1011.3
20260905083505 22 324 3.2 11.3 0.00 0.03 0.00 75 1011.2
20260905082438 22 324 3.2 12.9 0.00 0.03 0.00 75 1011.2
20260905081450 22 324 3.2 12.9 0.00 0.03 0.00 75 1011.2
20260905080434 22 324 3.2 17.7 0.00 0.03 0.00 75 1011.2
20260905074327 22 324 3.2 17.7 0.00 0.03 0.00 75 1011.1
20260905073334 22 324 3.2 17.7 0.00 0.03 0.00 74 1011.1
20260905072324 22 324 3.2 14.5 0.00 0.03 0.00 74 1011.3
20260905071330 22 323 4.8 14.5 0.00 0.03 0.00 73 1011.2
20260905070350 22 324 6.4 20.9 0.00 0.03 0.00 73 1011.3
20260905065410 22 324 4.8 22.5 0.00 0.03 0.00 72 1011.3
20260905064358 22 324 6.4 22.5 0.00 0.03 0.00 73 1011.5
20260905063329 22 324 3.2 17.7 0.00 0.03 0.00 74 1011.6
20260905062329 22 324 4.8 17.7 0.00 0.03 0.00 75 1011.5
20260905061342 22 324 4.8 11.3 0.00 0.03 0.00 77 1011.7
20260905060346 22 324 3.2 8.0 0.00 0.03 0.00 77 1011.6
20260905055405 22 324 1.6 8.0 0.00 0.03 0.00 77 1011.7
20260905054405 22 324 3.2 11.3 0.00 0.03 0.00 77 1011.7
20260905053401 22 324 1.6 11.3 0.00 0.03 0.00 79 1011.8
20260905052412 22 324 1.6 6.4 0.00 0.03 0.00 80 1012.0
20260905051346 22 324 3.2 8.0 0.00 0.03 0.00 80 1012.0
20260905050352 23 324 3.2 8.0 0.00 0.03 0.00 79 1012.0
20260905045406 23 324 3.2 8.0 0.00 0.03 0.00 79 1012.0
20260905044422 23 324 3.2 8.0 0.00 0.03 0.00 79 1012.1
20260905043441 23 324 3.2 12.9 0.00 0.03 0.00 79 1012.2
20260905042446 23 324 4.8 12.9 0.00 0.03 0.00 79 1012.2
20260905041454 23 324 4.8 8.0 0.00 0.03 0.00 79 1012.2
20260905040507 23 324 3.2 8.0 0.00 0.03 0.00 79 1012.3
20260905035530 23 324 0.0 8.0 0.00 0.03 0.03 78 1012.5
20260905034505 23 324 1.6 8.0 0.00 0.03 0.03 78 1012.4
20260905033459 22 324 1.6 6.4 0.00 0.03 0.03 78 1012.3
20260905032511 22 324 1.6 4.8 0.00 0.03 0.03 77 1012.1
20260905031459 23 324 1.6 4.8 0.00 0.03 0.03 77 1012.1
20260905025313 23 324 0.0 0.0 0.00 0.03 0.03 76 1012.1
20260905024322 23 324 0.0 0.0 0.00 0.03 0.03 77 1012.0
20260905023329 23 324 0.0 0.0 0.00 0.03 0.03 76 1012.2
20260905022347 23 324 0.0 0.0 0.00 0.03 0.03 76 1012.1
20260905021331 23 324 0.0 0.0 0.00 0.03 0.03 75 1012.2
20260905020354 23 324 0.0 0.0 0.00 0.03 0.03 74 1012.3
20260905015324 24 324 0.0 1.6 0.00 0.03 0.03 74 1012.4
20260905014325 24 324 0.0 3.2 0.00 0.03 0.03 73 1012.3
20260905013316 24 324 1.6 6.4 0.00 0.03 0.03 73 1012.4
20260905012316 24 323 1.6 6.4 0.00 0.03 0.03 73 1012.3
20260905011310 25 324 0.0 4.8 0.00 0.03 0.03 73 1012.2
20260905010303 25 324 0.0 0.0 0.00 0.03 0.03 73 1012.3
20260905005307 25 324 0.0 0.0 0.00 0.03 0.03 73 1012.4
20260905004248 25 324 0.0 0.0 0.00 0.03 0.03 73 1012.4
20260905002136 26 323 0.0 0.0 0.00 0.03 0.03 71 1012.2
20260904235958 26 324 0.0 0.0 0.00 0.03 0.03 68 1012.0